Location: Willingham
(52.3167°N, 0.0667°E)
Time: 23:37:18
(UTC+00:00)

ARIANE 5 R/B - Pass Details

Date: 19 May 2025
Orbit: 614 x 648 km, 98.0° (Epoch: 16 June)

Event Time Altitude Azimuth Distance (km) Brightness Sun altitude
Exits shadow 23:01:18 31° 181° (S) 1,080 3.2 -16.7°
Maximum altitude 23:03:15 69° 257° (WSW) 666 2.6 -16.8°
Drops below altitude 10° 23:07:36 10° 341° (NNW) 2,007 6.5 -16.9°
Sets 23:09:50 0° 344° (NNW) 2,924 7.8 -17.0°
